Regional Weather Roundup
Issued by NWS

Home | Current Version | Previous Version | Text Only | Print | Product List | Glossary Off
Versions: 1 2 3 4 5 6 7 8 9 10 11 12 13 14 15 16 17 18 19 20 21 22 23 24 25 26 27 28 29 30 31 32 33 34 35 36 37 38 39 40 41 42 43 44 45 46 47 48 49 50

293
ASUS43 KBIS 240110
RWRND

NORTH DAKOTA REGIONAL WEATHER ROUNDUP
NATIONAL WEATHER SERVICE BISMARCK ND
800 PM CDT THU MAR 23 2017

NOTE: "FAIR" INDICATES FEW OR NO CLOUDS BELOW 12,000 FEET WITH NO
SIGNIFICANT WEATHER AND/OR OBSTRUCTIONS TO VISIBILITY.


NDZ001>003-009>011-017-240200-
NORTHWEST NORTH DAKOTA

CITY           SKY/WX    TMP DP  RH WIND       PRES   REMARKS
WILLISTON      CLOUDY    51  37  58 NE8       29.84R
MINOT          FAIR      36  31  82 N10       29.83R
MINOT AFB      PTCLDY    36  31  83 N7        29.83R
$$

NDZ018>021-031>035-040>046-240200-
SOUTHWEST NORTH DAKOTA

CITY           SKY/WX    TMP DP  RH WIND       PRES   REMARKS
BISMARCK       LGT RAIN  40  38  93 S8        29.83R FOG
DICKINSON      FAIR      45  38  76 S9        29.81R
GARRISON         N/A     40  34  79 E3        29.81R
HETTINGER ARPT CLOUDY    42  40  92 E6        29.85R
$$

NDZ004>008-012>016-024-026-027-054-240200-
NORTHEAST NORTH DAKOTA

CITY           SKY/WX    TMP DP  RH WIND       PRES   REMARKS
GRAND FORKS    CLOUDY    36  35  96 S8        29.82R
GRND FRKS AFB  CLOUDY    36  36 100 S9        29.81R
DEVILS LAKE    CLOUDY    34  32  92 S3        29.82R
$$

NDZ022-023-025-028>030-036>039-047>053-240200-
SOUTHEAST NORTH DAKOTA

CITY           SKY/WX    TMP DP  RH WIND       PRES   REMARKS
FARGO          CLOUDY    37  35  92 SE6       29.82R FOG
JAMESTOWN      CLOUDY    36  35  96 N6        29.80R
$$





USA.gov is the U.S. government's official web portal to all federal, state and local government web resources and services.